| time (UTC) | temp C | wind direction | speed KPH | gust KPH | rain 1hr cm | rain 24hr cm | rain mn cm | humidity % | barometer mb |
| 20260901080609 | 17 | 275 | 3.2 | 11.3 | 0.00 | 0.00 | 0.00 | 1 | 1019.9 |
| 20260901075632 | 17 | 246 | 3.2 | 12.9 | 0.00 | 0.00 | 0.00 | 1 | 1019.8 |
| 20260901073446 | 16 | 278 | 3.2 | 12.9 | 0.00 | 0.00 | 0.00 | 1 | 1019.6 |
| 20260901072456 | 16 | 259 | 1.6 | 8.0 | 0.00 | 0.00 | 0.00 | 1 | 1019.5 |
| 20260901071427 | 16 | 265 | 0.0 | 0.0 | 0.00 | 0.00 | 0.00 | 1 | 1019.4 |
| 20260901065325 | 16 | 264 | 3.2 | 9.7 | 0.00 | 0.00 | 0.00 | 1 | 1019.4 |
| 20260901064328 | 15 | 272 | 3.2 | 8.0 | 0.00 | 0.00 | 0.00 | 1 | 1019.4 |
| 20260901063338 | 15 | 271 | 1.6 | 9.7 | 0.00 | 0.00 | 0.00 | 1 | 1019.3 |
| 20260901062310 | 15 | 265 | 3.2 | 9.7 | 0.00 | 0.00 | 0.00 | 1 | 1019.2 |
| 20260901061324 | 15 | 261 | 1.6 | 8.0 | 0.00 | 0.00 | 0.00 | 1 | 1019.2 |
| 20260901055132 | 14 | 261 | 1.6 | 4.8 | 0.00 | 0.00 | 0.00 | 1 | 1018.8 |
| 20260901054120 | 14 | 261 | 1.6 | 4.8 | 0.00 | 0.00 | 0.00 | 1 | 1018.8 |
| 20260901053140 | 14 | 259 | 1.6 | 4.8 | 0.00 | 0.00 | 0.00 | 1 | 1018.7 |
| 20260901052142 | 14 | 259 | 3.2 | 8.0 | 0.00 | 0.00 | 0.00 | 1 | 1018.8 |
| 20260901051121 | 15 | 265 | 1.6 | 8.0 | 0.00 | 0.00 | 0.00 | 1 | 1018.7 |
| 20260901050118 | 15 | 267 | 1.6 | 11.3 | 0.00 | 0.00 | 0.00 | 1 | 1018.6 |
| 20260901045045 | 15 | 263 | 3.2 | 11.3 | 0.00 | 0.00 | 0.00 | 1 | 1018.6 |
| 20260901044052 | 15 | 267 | 1.6 | 9.7 | 0.00 | 0.00 | 0.00 | 1 | 1018.6 |
| 20260901041921 | 16 | 271 | 1.6 | 9.7 | 0.00 | 0.00 | 0.00 | 1 | 1018.4 |
| 20260901035716 | 16 | 283 | 0.0 | 4.8 | 0.00 | 0.00 | 0.00 | 1 | 1018.1 |
| 20260901033602 | 16 | 278 | 0.0 | 11.3 | 0.00 | 0.00 | 0.00 | 1 | 1018.2 |
| 20260901032559 | 16 | 304 | 0.0 | 11.3 | 0.00 | 0.00 | 0.00 | 1 | 1018.2 |
| 20260901031608 | 16 | 311 | 0.0 | 0.0 | 0.00 | 0.03 | 0.00 | 1 | 1018.2 |
| 20260901025506 | 17 | 298 | 0.0 | 8.0 | 0.00 | 0.03 | 0.00 | 1 | 1018.1 |
| 20260901024446 | 17 | 289 | 1.6 | 12.9 | 0.00 | 0.03 | 0.00 | 1 | 1018.1 |
| 20260901023446 | 17 | 300 | 1.6 | 11.3 | 0.00 | 0.03 | 0.00 | 1 | 1018.1 |
| 20260901022459 | 17 | 313 | 1.6 | 9.7 | 0.00 | 0.03 | 0.00 | 1 | 1018.0 |
| 20260901021520 | 17 | 299 | 0.0 | 9.7 | 0.00 | 0.03 | 0.00 | 1 | 1018.0 |
| 20260901020519 | 17 | 314 | 0.0 | 9.7 | 0.00 | 0.05 | 0.00 | 1 | 1017.9 |
| 20260901015530 | 17 | 284 | 0.0 | 9.7 | 0.00 | 0.13 | 0.00 | 1 | 1017.9 |
| 20260901014542 | 17 | 311 | 0.0 | 6.4 | 0.00 | 0.28 | 0.00 | 1 | 1017.9 |
| 20260901013554 | 17 | 297 | 1.6 | 6.4 | 0.00 | 0.30 | 0.00 | 1 | 1017.9 |
| 20260901012536 | 17 | 273 | 1.6 | 12.9 | 0.00 | 0.30 | 0.00 | 1 | 1017.8 |
| 20260901011533 | 17 | 297 | 1.6 | 8.0 | 0.00 | 0.30 | 0.00 | 1 | 1017.7 |
| 20260901005407 | 17 | 267 | 3.2 | 9.7 | 0.00 | 0.30 | 0.00 | 1 | 1017.7 |
| 20260901000955 | 18 | 291 | 1.6 | 4.8 | 0.00 | 0.30 | 0.00 | 1 | 1017.4 |
| 20260831235959 | 18 | 296 | 0.0 | 6.4 | 0.00 | 0.30 | 0.00 | 1 | 1017.4 |
| 20260831233849 | 18 | 300 | 1.6 | 9.7 | 0.00 | 0.30 | 0.00 | 1 | 1017.4 |
| 20260831232834 | 18 | 298 | 1.6 | 9.7 | 0.00 | 0.30 | 0.00 | 1 | 1017.3 |
| 20260831231804 | 18 | 309 | 0.0 | 8.0 | 0.00 | 0.30 | 0.00 | 1 | 1017.3 |
| 20260831230815 | 18 | 313 | 0.0 | 9.7 | 0.00 | 0.30 | 0.00 | 1 | 1017.3 |
| 20260831225750 | 18 | 293 | 0.0 | 9.7 | 0.00 | 0.30 | 0.30 | 1 | 1017.2 |
| 20260831224809 | 18 | 280 | 0.0 | 0.0 | 0.00 | 0.30 | 0.30 | 1 | 1017.2 |
| 20260831223754 | 18 | 303 | 0.0 | 0.0 | 0.00 | 0.30 | 0.30 | 1 | 1017.2 |
| 20260831222758 | 18 | 320 | 0.0 | 11.3 | 0.00 | 0.30 | 0.30 | 1 | 1017.2 |
| 20260831220630 | 18 | 272 | 3.2 | 11.3 | 0.00 | 0.36 | 0.30 | 1 | 1017.0 |
| 20260831215637 | 18 | 276 | 3.2 | 11.3 | 0.00 | 0.36 | 0.30 | 1 | 1016.9 |
| 20260831214637 | 18 | 265 | 4.8 | 11.3 | 0.00 | 0.38 | 0.30 | 1 | 1016.8 |
| 20260831213650 | 18 | 277 | 0.0 | 11.3 | 0.00 | 0.41 | 0.30 | 1 | 1016.7 |
| 20260831212710 | 18 | 275 | 0.0 | 0.0 | 0.00 | 0.41 | 0.30 | 1 | 1016.6 |
| 20260831211710 | 19 | 282 | 0.0 | 0.0 | 0.00 | 0.41 | 0.30 | 1 | 1016.5 |
| 20260831210644 | 19 | 286 | 0.0 | 0.0 | 0.00 | 0.41 | 0.30 | 1 | 1016.3 |
| 20260831205656 | 19 | 284 | 0.0 | 0.0 | 0.00 | 0.41 | 0.30 | 1 | 1016.1 |
| 20260831204637 | 19 | 284 | 0.0 | 0.0 | 0.00 | 0.41 | 0.30 | 1 | 1016.1 |
| 20260831202518 | 20 | 272 | 1.6 | 14.5 | 0.00 | 0.41 | 0.30 | 1 | 1016.1 |
| 20260831201507 | 20 | 261 | 3.2 | 14.5 | 0.00 | 0.41 | 0.30 | 1 | 1015.9 |
| 20260831200448 | 20 | 244 | 3.2 | 8.0 | 0.00 | 0.38 | 0.28 | 1 | 1015.8 |
| 20260831195437 | 20 | 244 | 3.2 | 6.4 | 0.00 | 0.38 | 0.28 | 1 | 1015.5 |
| 20260831193349 | 20 | 244 | 0.0 | 8.0 | 0.00 | 0.38 | 0.28 | 1 | 1015.3 |
| 20260831192405 | 20 | 255 | 1.6 | 9.7 | 0.00 | 0.38 | 0.28 | 1 | 1015.2 |
| 20260831191359 | 20 | 264 | 3.2 | 9.7 | 0.00 | 0.38 | 0.28 | 1 | 1015.0 |
| 20260831190409 | 20 | 266 | 1.6 | 8.0 | 0.00 | 0.38 | 0.28 | 1 | 1014.9 |
| 20260831184321 | 21 | 273 | 3.2 | 11.3 | 0.00 | 0.38 | 0.28 | 1 | 1014.7 |
| 20260831183342 | 21 | 299 | 1.6 | 8.0 | 0.00 | 0.38 | 0.28 | 1 | 1014.5 |
| 20260831182402 | 21 | 300 | 1.6 | 9.7 | 0.00 | 0.38 | 0.28 | 1 | 1014.3 |
| 20260831175120 | 21 | 288 | 1.6 | 9.7 | 0.00 | 0.38 | 0.28 | 1 | 1014.0 |
| 20260831174136 | 21 | 263 | 1.6 | 8.0 | 0.00 | 0.38 | 0.28 | 1 | 1014.0 |
| 20260831173159 | 21 | 315 | 1.6 | 14.5 | 0.00 | 0.38 | 0.28 | 1 | 1013.9 |
| 20260831172128 | 21 | 311 | 3.2 | 14.5 | 0.00 | 0.38 | 0.28 | 1 | 1013.8 |
| 20260831171146 | 21 | 317 | 3.2 | 14.5 | 0.00 | 0.38 | 0.28 | 1 | 1013.8 |
| 20260831170112 | 21 | 299 | 1.6 | 14.5 | 0.00 | 0.38 | 0.28 | 2 | 1013.6 |
| 20260831165121 | 21 | 313 | 3.2 | 12.9 | 0.00 | 0.38 | 0.28 | 1 | 1013.5 |
| 20260831164144 | 21 | 304 | 4.8 | 17.7 | 0.00 | 0.38 | 0.28 | 1 | 1013.4 |
| 20260831162014 | 23 | 275 | 4.8 | 12.9 | 0.00 | 0.41 | 0.28 | 20 | 1013.0 |
| 20260831161034 | 24 | 288 | 4.8 | 22.5 | 0.00 | 0.41 | 0.28 | 28 | 1012.9 |
| 20260831154957 | 24 | 306 | 6.4 | 16.1 | 0.00 | 0.41 | 0.28 | 26 | 1012.6 |
| 20260831153948 | 23 | 310 | 4.8 | 14.5 | 0.00 | 0.41 | 0.28 | 20 | 1012.7 |
| 20260831152950 | 22 | 273 | 6.4 | 19.3 | 0.00 | 0.41 | 0.28 | 16 | 1012.6 |
| 20260831152007 | 22 | 286 | 6.4 | 19.3 | 0.00 | 0.41 | 0.28 | 18 | 1012.4 |
| 20260831150947 | 23 | 278 | 3.2 | 17.7 | 0.00 | 0.41 | 0.28 | 17 | 1012.4 |
| 20260831150009 | 23 | 290 | 6.4 | 17.7 | 0.00 | 0.41 | 0.28 | 22 | 1012.3 |
| 20260831142657 | 23 | 332 | 3.2 | 14.5 | 0.00 | 0.41 | 0.28 | 14 | 1012.0 |
| 20260831141625 | 22 | 272 | 6.4 | 19.3 | 0.00 | 0.41 | 0.28 | 8 | 1011.9 |
| 20260831140647 | 22 | 309 | 4.8 | 19.3 | 0.00 | 0.41 | 0.28 | 9 | 1011.9 |
| 20260831134526 | 23 | 308 | 3.2 | 16.1 | 0.00 | 0.41 | 0.28 | 10 | 1011.6 |
| 20260831133528 | 23 | 310 | 6.4 | 17.7 | 0.00 | 0.41 | 0.28 | 15 | 1011.6 |
| 20260831131413 | 23 | 339 | 4.8 | 16.1 | 0.00 | 0.41 | 0.28 | 10 | 1011.4 |
| 20260831130427 | 23 | 264 | 6.4 | 17.7 | 0.00 | 0.41 | 0.28 | 8 | 1011.2 |
| 20260831125446 | 22 | 271 | 8.0 | 19.3 | 0.00 | 0.41 | 0.28 | 8 | 1011.1 |
| 20260831124508 | 22 | 284 | 6.4 | 20.9 | 0.00 | 0.41 | 0.28 | 1 | 1011.0 |
| 20260831122313 | 22 | 304 | 4.8 | 19.3 | 0.00 | 0.41 | 0.28 | 1 | 1010.8 |
| 20260831121312 | 22 | 286 | 6.4 | 19.3 | 0.00 | 0.41 | 0.28 | 1 | 1010.6 |
| 20260831115156 | 21 | 295 | 4.8 | 19.3 | 0.00 | 0.41 | 0.28 | 1 | 1010.3 |
| 20260831112949 | 22 | 317 | 6.4 | 20.9 | 0.00 | 0.41 | 0.28 | 1 | 1010.1 |
| 20260831111919 | 22 | 312 | 6.4 | 17.7 | 0.00 | 0.41 | 0.28 | 1 | 1010.0 |
| 20260831110848 | 21 | 264 | 8.0 | 20.9 | 0.00 | 0.41 | 0.28 | 1 | 1009.9 |
| 20260831104650 | 20 | 266 | 6.4 | 17.7 | 0.00 | 0.41 | 0.28 | 1 | 1009.6 |
| 20260831103650 | 21 | 276 | 4.8 | 22.5 | 0.00 | 0.41 | 0.28 | 1 | 1009.4 |
| 20260831102628 | 21 | 267 | 6.4 | 22.5 | 0.00 | 0.41 | 0.28 | 1 | 1009.3 |
| 20260831101556 | 20 | 277 | 8.0 | 12.9 | 0.00 | 0.41 | 0.28 | 1 | 1009.2 |
| 20260831101117 | 20 | 281 | 8.0 | 30.6 | 0.00 | 0.41 | 0.28 | 1 | 1009.2 |
| 20260831100048 | 20 | 284 | 9.7 | 30.6 | 0.00 | 0.41 | 0.28 | 1 | 1009.1 |
| 20260831095058 | 20 | 248 | 8.0 | 24.1 | 0.00 | 0.41 | 0.28 | 1 | 1008.9 |
| 20260831091749 | 18 | 278 | 11.3 | 25.7 | 0.00 | 0.41 | 0.28 | 1 | 1008.4 |
| 20260831090740 | 18 | 263 | 11.3 | 25.7 | 0.00 | 0.41 | 0.28 | 1 | 1008.2 |
| 20260831085718 | 18 | 254 | 9.7 | 24.1 | 0.00 | 0.41 | 0.28 | 1 | 1008.1 |
| 20260831084705 | 17 | 247 | 9.7 | 24.1 | 0.00 | 0.41 | 0.28 | 1 | 1008.0 |
| 20260831083642 | 17 | 302 | 8.0 | 24.1 | 0.00 | 0.41 | 0.28 | 1 | 1007.9 |
| 20260831082630 | 17 | 271 | 6.4 | 22.5 | 0.00 | 0.41 | 0.28 | 1 | 1007.8 |
| 20260831081641 | 16 | 265 | 11.3 | 22.5 | 0.00 | 0.41 | 0.28 | 1 | 1007.6 |